TimeCST,TemperatureF,Dew PointF,Humidity,Sea Level PressureIn,VisibilityMPH,Wind Direction,Wind SpeedMPH,Gust SpeedMPH,PrecipitationIn,Events,Conditions,WindDirDegrees,DateUTC
12:16 AM,12.2,10.4,92,30.19,10.0,NE,3.5,-,N/A,,Overcast,40,2013-02-22 06:16:00
12:37 AM,12.2,10.4,92,30.18,10.0,Calm,Calm,-,N/A,,Overcast,0,2013-02-22 06:37:00
12:56 AM,12.2,10.4,92,30.18,10.0,Calm,Calm,-,N/A,,Overcast,0,2013-02-22 06:56:00
1:16 AM,12.2,10.4,92,30.17,10.0,NE,3.5,-,N/A,,Overcast,50,2013-02-22 07:16:00
1:37 AM,12.2,12.2,100,30.17,10.0,ENE,4.6,-,N/A,,Overcast,60,2013-02-22 07:37:00
1:56 AM,14.0,12.2,93,30.16,10.0,ENE,4.6,-,N/A,,Overcast,60,2013-02-22 07:56:00
2:16 AM,14.0,12.2,93,30.15,7.0,ENE,5.8,-,N/A,,Overcast,70,2013-02-22 08:16:00
2:37 AM,14.0,12.2,93,30.14,4.0,NE,4.6,-,N/A,,Overcast,50,2013-02-22 08:37:00
2:56 AM,14.0,12.2,93,30.13,3.0,ENE,4.6,-,N/A,,Overcast,60,2013-02-22 08:56:00
3:16 AM,14.0,12.2,93,30.12,4.0,ENE,3.5,-,N/A,,Overcast,60,2013-02-22 09:16:00
3:37 AM,14.0,12.2,93,30.11,4.0,ENE,3.5,-,N/A,,Overcast,60,2013-02-22 09:37:00
3:56 AM,14.0,12.2,93,30.10,5.0,NE,3.5,-,N/A,,Overcast,50,2013-02-22 09:56:00
4:16 AM,14.0,12.2,93,30.09,5.0,NNE,3.5,-,N/A,,Overcast,30,2013-02-22 10:16:00
4:37 AM,14.0,12.2,93,30.08,5.0,NE,5.8,-,N/A,,Overcast,40,2013-02-22 10:37:00
4:56 AM,14.0,12.2,93,30.07,5.0,NE,4.6,-,N/A,,Overcast,40,2013-02-22 10:56:00
5:17 AM,14.0,12.2,93,30.07,5.0,NNE,4.6,-,N/A,,Overcast,30,2013-02-22 11:17:00
5:37 AM,15.8,12.2,86,30.06,5.0,NE,4.6,-,N/A,,Overcast,50,2013-02-22 11:37:00
6:17 AM,15.8,12.2,86,30.05,5.0,ENE,4.6,-,N/A,,Overcast,70,2013-02-22 12:17:00
6:56 AM,15.8,14.0,93,30.03,5.0,NE,4.6,-,N/A,,Overcast,50,2013-02-22 12:56:00
7:17 AM,15.8,14.0,93,30.02,3.0,NE,3.5,-,N/A,,Overcast,40,2013-02-22 13:17:00
7:56 AM,15.8,15.8,100,30.01,4.0,NE,5.8,-,N/A,,Overcast,50,2013-02-22 13:56:00
8:56 AM,17.6,15.8,93,29.99,10.0,Calm,Calm,-,N/A,,Overcast,0,2013-02-22 14:56:00
9:36 AM,19.4,17.6,93,29.99,5.0,ENE,5.8,-,N/A,,Overcast,60,2013-02-22 15:36:00
9:57 AM,19.4,17.6,93,29.99,4.0,NE,3.5,-,N/A,,Overcast,50,2013-02-22 15:57:00
10:16 AM,19.4,17.6,93,29.98,2.0,NE,5.8,-,N/A,Snow,Light Snow,50,2013-02-22 16:16:00
10:36 AM,19.4,19.4,100,29.97,1.0,NE,4.6,-,N/A,Snow,Light Snow,50,2013-02-22 16:36:00
10:57 AM,21.2,21.2,100,29.97,1.2,NE,3.5,-,N/A,Snow,Light Snow,50,2013-02-22 16:57:00
11:16 AM,21.2,21.2,100,29.97,1.0,NE,3.5,-,N/A,Snow,Light Snow,50,2013-02-22 17:16:00
11:36 AM,21.2,21.2,100,29.96,4.0,NE,3.5,-,N/A,Snow,Light Snow,50,2013-02-22 17:36:00
11:57 AM,23.0,21.2,93,29.95,7.0,Calm,Calm,-,N/A,Snow,Light Snow,0,2013-02-22 17:57:00
12:37 PM,24.8,23.0,93,29.94,3.0,NE,4.6,-,N/A,Snow,Light Snow,40,2013-02-22 18:37:00
12:56 PM,24.8,23.0,93,29.93,10.0,NE,4.6,-,N/A,,Overcast,40,2013-02-22 18:56:00
1:16 PM,24.8,23.0,93,29.93,10.0,NNE,4.6,-,N/A,,Overcast,30,2013-02-22 19:16:00
1:37 PM,24.8,21.2,86,29.92,10.0,ENE,5.8,-,N/A,,Overcast,60,2013-02-22 19:37:00
1:56 PM,24.8,21.2,86,29.92,10.0,ENE,4.6,-,N/A,,Overcast,60,2013-02-22 19:56:00
2:16 PM,26.6,21.2,80,29.91,10.0,NE,4.6,-,N/A,,Overcast,50,2013-02-22 20:16:00
2:37 PM,26.6,21.2,80,29.90,10.0,NE,5.8,-,N/A,,Overcast,40,2013-02-22 20:37:00
5:37 PM,26.6,21.2,80,29.88,10.0,ENE,3.5,-,N/A,,Overcast,60,2013-02-22 23:37:00
5:56 PM,26.6,21.2,80,29.88,10.0,ENE,3.5,-,N/A,,Overcast,60,2013-02-22 23:56:00
6:17 PM,26.6,21.2,80,29.89,10.0,ENE,4.6,-,N/A,,Overcast,70,2013-02-23 00:17:00
6:37 PM,24.8,21.2,86,29.88,10.0,ENE,3.5,-,N/A,,Overcast,60,2013-02-23 00:37:00
6:56 PM,24.8,21.2,86,29.88,10.0,ENE,3.5,-,N/A,,Overcast,60,2013-02-23 00:56:00
7:17 PM,24.8,21.2,86,29.88,10.0,Calm,Calm,-,N/A,,Overcast,0,2013-02-23 01:17:00
7:36 PM,24.8,21.2,86,29.88,10.0,Calm,Calm,-,N/A,,Overcast,0,2013-02-23 01:36:00
7:56 PM,24.8,21.2,86,29.88,7.0,Calm,Calm,-,N/A,,Overcast,0,2013-02-23 01:56:00
8:17 PM,24.8,21.2,86,29.88,10.0,Calm,Calm,-,N/A,,Overcast,0,2013-02-23 02:17:00
8:36 PM,24.8,21.2,86,29.88,10.0,Calm,Calm,-,N/A,,Overcast,0,2013-02-23 02:36:00
8:56 PM,24.8,21.2,86,29.87,5.0,Calm,Calm,-,N/A,Snow,Light Snow,0,2013-02-23 02:56:00
9:17 PM,23.0,19.4,86,29.87,5.0,Calm,Calm,-,N/A,Snow,Light Snow,0,2013-02-23 03:17:00
9:36 PM,23.0,19.4,86,29.86,7.0,Calm,Calm,-,N/A,Snow,Light Snow,0,2013-02-23 03:36:00
9:57 PM,21.2,19.4,93,29.86,10.0,Calm,Calm,-,N/A,Snow,Light Snow,0,2013-02-23 03:57:00
10:16 PM,21.2,19.4,93,29.85,10.0,Calm,Calm,-,N/A,Snow,Light Snow,0,2013-02-23 04:16:00
10:36 PM,21.2,19.4,93,29.85,5.0,Calm,Calm,-,N/A,Snow,Light Snow,0,2013-02-23 04:36:00
10:57 PM,17.6,17.6,100,29.85,7.0,Calm,Calm,-,N/A,Snow,Light Snow,0,2013-02-23 04:57:00
11:16 PM,19.4,17.6,93,29.85,10.0,Calm,Calm,-,N/A,,Overcast,0,2013-02-23 05:16:00
11:57 PM,19.4,17.6,93,29.84,10.0,Calm,Calm,-,N/A,,Overcast,0,2013-02-23 05:57:00